{"data":{"norad_id":62714,"epoch":"2026-09-22T17:51:29.026944Z","epoch_age_seconds":125701,"freshness":"FRESH","line1":"1 62714U 25009DK  26265.74408596  .00002149  00000+0  18552-3 0  9999","line2":"2 62714  97.6982 344.5641 0001971 161.2029 198.9267 14.98294693 92085","mean_motion":14.98294693,"eccentricity":0.0001971,"inclination_deg":97.6982,"raan_deg":344.5641,"arg_perigee_deg":161.2029,"mean_anomaly_deg":198.9267,"bstar":0.00018552,"rev_number":9208,"period_min":96.109263866958,"perigee_km":570.79517253412,"apogee_km":573.5349816129,"semimajor_km":6950.3020770735,"source":"CELESTRAK","updated_at":"2026-09-23T09:00:21.589785Z"}}